(2020 PQ2) |
Classification: Apollo [NEO] SPK-ID: 54051042 |
[ hide orbit diagram ]
For accurate long-term ephemerides, please instead use our Horizons system.This orbit viewer was implemented using two-body methods, and hence should not be used for determining accurate long-term trajectories (over several years or decades) or planetary encounter circumstances.
Orbital Elements at Epoch 2459000.5 (2020-May-31.0) TDB
Reference: JPL 10 (heliocentric ecliptic J2000)
Element | Value | Uncertainty (1-sigma) | Units |
e | .7249239138734077 | 0.00053848 | |
a | 2.442916485001393 | 0.0042764 | au |
q | .6719879054283152 | 0.00013912 | au |
i | 6.020770083951423 | 0.0035997 | deg |
node | 154.5081888313204 | 0.00059441 | deg |
peri | 251.9467880580866 | 0.0016293 | deg |
M | 327.2216168664551 | 0.089832 | deg |
tp | 2459127.483234038727 (2020-Oct-04.98323404) | 0.014577 | TDB |
period | 1394.63755938464 3.82 | 3.662 0.01003 | d yr |
n | .2581315823437624 | 0.0006778 | deg/d |
Q | 4.21384506457447 | 0.0073765 | au |
|
| | Orbit Determination Parameters
Additional Information
|
[ show covariance matrix ]
Physical Parameter Table
Parameter |
Symbol |
Value |
Units |
Sigma |
Reference |
Notes |
absolute magnitude |
H |
24.4 |
|
.4747 |
E2020-QG2 |
autocmod 2.8 |
|
[ show close-approach data ]
|